#timestamp,LO_Frequency,Hit,StdDev 
1648962015.1,286047002.4,N
1648962016.0,286047002.4,N
1648962035.8,286047000.4,N
1648962055.6,286047002.7,N
1648962075.5,286047001.6,N
1648962095.3,286047002.8,N
1648962115.1,286047000.2,N
1648962135.9,286047004.1,N
1648962155.7,286047003.4,N
1648962175.6,286047003.8,N
1648962195.4,286047001.9,N
1648962215.2,286047001.5,N
1648962235.1,286047002.5,N
1648962236.0,286047002.5,N
1648962255.8,286047002.2,N
1648962275.6,286047002.0,N
1648962295.5,286047000.1,N
1648962315.3,286047000.1,N
1648962335.2,286046999.9,N
1648962355.9,286047001.6,N
1648962375.7,286047001.6,N
1648962395.6,286047005.5,Y
1648962415.4,286047002.1,P
1648962435.3,286047001.5,P
1648962455.1,286047000.0,N
1648962456.0,286047000.0,N
1648962475.8,286047001.2,N
1648962495.7,286046998.5,N
1648962515.5,286047001.1,N
1648962535.3,286046998.9,N
1648962555.2,286046998.4,N
1648962575.0,286046996.6,N
1648962575.9,286046996.6,N
1648962595.8,286046999.5,N
1648962615.6,286047001.2,N
1648962635.4,286047002.0,N
1648962655.3,286047002.3,N
1648962675.1,286046999.8,N
1648962695.8,286047001.9,N
1648962715.7,286047002.7,N
1648962735.5,286047000.0,N
1648962755.4,286047000.6,N
1648962775.2,286047000.5,N
1648962795.0,286046998.7,N
1648962795.9,286046998.7,N
1648962815.8,286047001.1,N
1648962835.6,286047001.3,N
1648962855.5,286047001.1,N
1648962875.3,286047001.2,N
1648962895.1,286047000.0,N
1648962915.9,286047001.0,N
1648962935.7,286047000.2,N
1648962955.5,286047000.2,N
1648962975.4,286047001.8,N
1648962995.2,286047002.7,N
1648963015.1,286047000.7,N
1648963016.0,286047000.7,N
1648963035.8,286047000.1,N
1648963055.6,286047000.7,N
1648963075.5,286047002.6,N
1648963095.3,286047002.6,N
1648963115.2,286046999.9,N
1648963135.9,286047002.5,N
1648963155.7,286047001.1,N
1648963175.6,286047002.3,N
1648963195.4,286047002.9,N
1648963215.2,286047001.4,N
1648963235.1,286047002.6,N
1648963236.0,286047002.6,N
1648963255.8,286046999.8,N
1648963275.7,286047002.8,N
1648963295.5,286046998.6,N
1648963315.3,286047001.2,N
1648963335.2,286047001.2,N
1648963355.0,286046998.1,N
1648963355.9,286046998.1,N
1648963375.8,286047001.2,N
1648963395.6,286047002.8,N
1648963415.4,286046999.8,N
1648963435.3,286047000.4,N
1648963455.1,286047001.0,N
1648963475.9,286047000.4,N
1648963495.7,286047000.3,N
1648963515.5,286047000.1,N
1648963535.4,286047002.6,N
1648963555.2,286047002.4,N
1648963575.0,286047001.1,N
1648963575.9,286047001.1,N
1648963595.8,286047007.0,Y
1648963615.6,286047006.8,P
1648963635.5,286047005.1,N
1648963655.3,286047005.7,N
1648963675.1,286047004.1,N
1648963695.9,286047001.7,N
1648963715.7,286047001.8,N
1648963735.5,286047001.4,N
1648963755.4,286047005.5,N
1648963775.2,286047003.8,N
1648963795.1,286047001.8,N
1648963796.0,286047001.8,N
1648963815.8,286047004.8,N
1648963835.6,286047007.6,Y
1648963855.5,286046998.8,P
1648963875.3,286046997.0,N
1648963895.2,286047003.7,N
1648963915.9,286047007.4,N
1648963935.7,286047004.1,N
1648963955.6,286047006.2,N
1648963975.4,286047007.6,N
1648963995.2,286047014.4,Y
1648964015.1,286047010.6,P
1648964016.0,286047010.6,N
1648964035.8,286047010.7,P
1648964055.7,286047006.1,N
1648964075.5,286047009.9,Y
1648964095.3,286047001.6,P
1648964115.2,286047004.4,N
1648964135.0,286047001.8,N
1648964135.9,286047001.8,N
1648964155.7,286047006.6,N
1648964175.6,286047003.2,N
1648964195.4,286047008.7,Y
1648964215.3,286047003.8,P
1648964235.1,286047002.5,P
1648964236.0,286047002.5,P
1648964255.8,286046996.7,Y
1648964275.7,286046991.3,P
1648964295.5,286046997.3,N
1648964315.4,286046994.8,N
1648964335.2,286046989.0,N
1648964355.0,286046988.2,N
1648964355.9,286046988.2,N
1648964375.8,286046983.8,Y
1648964395.6,286046990.4,P
1648964415.4,286046991.0,P
1648964435.3,286046991.5,P
1648964455.1,286046991.9,Y
1648964475.9,286047003.1,P
1648964495.7,286047007.1,N
1648964515.5,286047003.4,N
1648964535.4,286047010.7,N
1648964555.2,286047009.2,N
1648964575.0,286047007.4,N
1648964576.0,286047007.4,N
1648964595.8,286047005.3,N
1648964615.6,286047001.3,N
1648964635.5,286047003.1,N
1648964655.3,286047004.7,N
1648964675.1,286047008.8,N
1648964695.9,286047006.3,N
1648964715.7,286047007.5,N
1648964735.5,286047000.4,N
1648964755.4,286046998.2,N
1648964775.2,286047000.0,N
1648964795.1,286047000.2,N
1648964796.0,286047000.2,N
1648964815.8,286047007.2,N
1648964835.6,286047004.6,N
1648964855.5,286047004.5,N
1648964875.3,286047008.5,N
1648964895.2,286047013.6,Y
1648964915.9,286047005.9,P
1648964935.7,286047006.4,P
1648964955.6,286047010.0,P
1648964975.4,286047008.2,Y
1648964995.2,286047002.4,P
1648965015.1,286047000.4,N
1648965016.0,286047000.4,N
1648965035.8,286047007.3,N
1648965055.7,286047005.6,N
1648965075.5,286047001.0,N
1648965095.3,286046997.1,N
1648965115.2,286046996.9,N
1648965135.0,286047001.6,N
1648965135.9,286047001.6,N
1648965155.7,286047005.4,N
1648965175.6,286047003.0,N
1648965195.4,286046998.3,N
1648965215.3,286046998.0,N
1648965235.1,286046999.3,N
1648965236.0,286046999.3,N
1648965255.8,286047001.2,N
1648965275.7,286046998.4,N
1648965325.5,286046993.4,E
1648965335.5,286046996.7,N
1648965355.3,286047002.3,P
1648965375.1,286047000.3,N
1648965395.9,286047000.4,N
1648965415.7,286047006.5,Y
1648965435.6,286047005.1,P
1648965455.4,286047003.8,N
1648965475.2,286047009.0,P
1648965495.1,286047006.6,N
1648965496.0,286047006.6,N
1648965515.8,286047003.9,N
1648965535.6,286047001.6,N
1648965555.5,286047002.1,N
1648965575.3,286047002.6,N
1648965595.1,286047007.8,N
